Location: Blairvadach
(56.2780°N, 6.9720°W)
Time: 13:59:49
(UTC+00:00)

Envisat - Pass Details

Date: 23 November 2019
Orbit: 764 x 766 km, 98.1° (Epoch: 08 December)

Event Time Altitude Azimuth Distance (km) Brightness Sun altitude
Rises 19:50:39 0° 215° (SW) 3,226 6.6 -30.2°
Reaches altitude 10° 19:53:46 10° 235° (SW) 2,305 6.0 -30.6°
Maximum altitude 19:57:00 17° 275° (W) 1,879 5.8 -31.0°
Drops below altitude 10° 20:00:16 10° 315° (NW) 2,315 6.1 -31.5°
Sets 20:03:26 0° 336° (NNW) 3,247 6.7 -31.9°
